Location: Unspecified
(0.0000°N, 0.0000°E)
Time: 04:34:14
(UTC+00:00)

ISS - Pass Details

Date: 12 June 2019
Orbit: 407 x 418 km, 51.6° (Epoch: 27 June)

Event Time Altitude Azimuth Distance (km) Brightness Sun altitude
Rises 19:34:09 0° 340° (NNW) 2,337 0.7 -21.6°
Reaches altitude 10° 19:36:24 10° 352° (N) 1,480 -0.6 -22.1°
Enters shadow 19:37:52 21° 11° (N) 1,004 -1.7 -22.4°
